Allen, KS (66833)

7:52 PM CDT on August 30, 2015 (GMT -0500)
Timmerman School Area | | Change Station
CLOSE
Current Station
Personal Weather Station
Location: Emporia, KS
Elevation: 1214 ft
Nearby Weather Stations

Elev 1214 ft 38.43 °N, 96.22 °W | Updated 20 seconds ago

Clear
Clear
78.6 °F
Feels Like 78 °F
N
1.8
Wind Variable Wind from ESE
Gusts 2.5 mph

Today
High -- | Low -- °F
--% Chance of Precip.
Yesterday
High -- | Low -- °F
Precip. -- in
6:52 AM 7:58 PM
Full, 98% visible
Pressure 29.94 in
Visibility 10.0 miles
Clouds Clear
Heat Index 78 °F
Dew Point 35 °F
Humidity 21%
Rainfall 0.01 in
Snow Depth Not available.
UV 1 out of 12
Pollen 10.50 out of 12
Air Quality Not available.
Flu Activity Not available.
METAR KEMP 302353Z AUTO 11005KT 10SM CLR 27/19 A2995 RMK AO2 SLP136 T02670189 10278 20250 56013
Pressure 29.94 in
Visibility 10.0 miles
Clouds Clear
Heat Index 78 °F
Dew Point 35 °F
Humidity 21%
Rainfall 0.01 in
Snow Depth Not available.
UV 1 out of 12
Pollen 10.50 out of 12
Air Quality Not available.
Flu Activity Not available.
METAR KEMP 302353Z AUTO 11005KT 10SM CLR 27/19 A2995 RMK AO2 SLP136 T02670189 10278 20250 56013

10-Day Weather Forecast

×

Almanac

Astronomy

Aug. 30, 2015 Rise Set
Actual Time
Civil Twilight
Nautical Twilight
Astronomical Twilight
Moon
Length of Visible Light
Length of Day
Tomorrow will be .
, % of the Moon is Illuminated

Today's Extremes

State Highs State Lows

Community

WunderPhotos

Upload Photos

1,851,116 photos uploaded!

WunderBlogs® & News

Nearby

Air Quality

  Air Quality AQ Index Pollutant
Not available.

Snow Depth

Station Depth Elevation

Earthquake Activity

City Distance Mag. Time & Date
Minimum magnitude displayed is 2.5.

Coastal Water Temperatures

Place Temperature

Stations

Nearby Weather Stations

Station Location Temp. Windchill Dew Point Humidity Wind Precip. Elev Updated Type